Date String (YYYY-MM-DD hh:mm:ss) UTC,Instrument flags,absolute air pressure of the measurement (hPa),sample flow rate (lpm),inlet stack bypass flow (lpm),air temperature of the measurement (°C),ambient temperature measured by the external sensor (°C),aerosol sample conditioner tube jacket temperature (°C),OPC LED temperature (°C),internal box temperature (°C),relative humidity of the measurement (%),span deviation,mass concentration of particles derived from Lorenz-Mie calculation of OPC scattering (μg/m³),mass concentration of particles derived from Lorenz-Mie calculation of OPC scattering (μg/m³),mass concentration of particles derived from Lorenz-Mie calculation of OPC scattering (μg/m³)
DateTimeUTC,F1_M11,P_M11,Q1_M11,Q2_M11,T1_M11,T2_M11,T3_M11,T4_M11,T5_M11,U1_M11,ZSPAN_M11,X2_M11,X0_M11,X1_M11
2024-04-30 16:00:00,SystemResetWarning,0823.8,5.00,000.00,023.4,022.6,000.0,031.7,025.0,018.8,0000.0,0002.44,0006.47,0001.17
2024-04-30 16:01:00,SystemResetWarning,0823.9,5.00,000.00,023.4,022.5,000.0,031.8,025.0,018.7,0000.0,0002.39,0006.13,0001.17
2024-04-30 16:02:00,SystemResetWarning,0824.0,5.00,000.00,023.4,022.5,000.0,031.8,025.0,018.9,0000.0,0002.36,0005.77,0001.17
2024-04-30 16:03:00,SystemResetWarning,0824.0,5.00,000.00,023.4,022.5,000.0,031.8,025.0,018.7,0000.0,0002.44,0005.73,0001.17
2024-04-30 16:04:00,SystemResetWarning,0824.0,5.00,000.00,023.4,022.5,000.0,031.7,025.0,018.6,0000.0,0002.42,0005.54,0001.16
2024-04-30 16:05:00,SystemResetWarning,0824.0,5.00,000.00,023.4,022.5,000.0,031.7,025.0,019.0,0000.0,0002.46,0005.50,0001.15
2024-04-30 16:06:00,SystemResetWarning,0824.1,4.99,000.00,023.4,022.5,000.0,031.7,025.0,018.9,0000.0,0002.55,0005.45,0001.14
2024-04-30 16:07:00,SystemResetWarning,0824.1,5.00,000.00,023.4,022.5,000.0,031.7,025.0,018.9,0000.0,0002.57,0005.84,0001.14
2024-04-30 16:08:00,SystemResetWarning,0824.2,5.00,000.00,023.4,022.5,000.0,031.7,025.0,018.7,0000.0,0002.62,0005.99,0001.14
2024-04-30 16:09:00,SystemResetWarning,0824.2,5.00,000.00,023.4,022.5,000.0,031.7,025.0,018.9,0000.0,0002.65,0006.06,0001.14
2024-04-30 16:10:00,SystemResetWarning,0824.0,5.00,000.00,023.4,022.5,000.0,031.7,025.0,019.0,0000.0,0002.69,0006.13,0001.14
2024-04-30 16:11:00,SystemResetWarning,0824.0,5.00,000.00,023.4,022.5,000.0,031.7,025.0,018.4,0000.0,0002.70,0006.24,0001.16
2024-04-30 16:12:00,SystemResetWarning,0824.0,5.00,000.00,023.3,022.5,000.0,031.7,025.0,018.6,0000.0,0002.70,0006.30,0001.18
2024-04-30 16:13:00,SystemResetWarning,0824.0,5.00,000.00,023.3,022.5,000.0,031.7,025.0,019.4,0000.0,0002.74,0006.38,0001.20
2024-04-30 16:14:00,SystemResetWarning,0823.8,5.00,000.00,023.3,022.5,000.0,031.7,025.0,018.6,0000.0,0002.80,0006.72,0001.23
2024-04-30 16:15:00,SystemResetWarning,0823.8,5.00,000.00,023.3,022.5,000.0,031.7,025.0,018.4,0000.0,0002.80,0006.98,0001.25
2024-04-30 16:16:00,SystemResetWarning,0823.7,4.99,000.00,023.3,022.5,000.0,031.7,025.0,018.4,0000.0,0002.92,0007.32,0001.26
2024-04-30 16:17:00,SystemResetWarning,0823.8,5.00,000.00,023.3,022.5,000.0,031.7,025.0,018.8,0000.0,0003.00,0007.40,0001.29
2024-04-30 16:18:00,SystemResetWarning,0823.8,4.99,000.00,023.3,022.5,000.0,031.7,025.0,018.9,0000.0,0003.05,0007.16,0001.31
2024-04-30 16:19:00,SystemResetWarning,0823.8,5.00,000.00,023.3,022.5,000.0,031.7,025.0,018.9,0000.0,0003.11,0007.26,0001.34
2024-04-30 16:20:00,SystemResetWarning,0823.8,5.00,000.00,023.3,022.5,000.0,031.7,025.0,019.1,0000.0,0003.20,0007.53,0001.39
2024-04-30 16:21:00,SystemResetWarning,0823.8,5.00,000.00,023.3,022.5,000.0,031.7,025.0,019.1,0000.0,0003.27,0007.67,0001.42
2024-04-30 16:22:00,SystemResetWarning,0823.9,5.00,000.00,023.3,022.5,000.0,031.7,025.0,019.1,0000.0,0003.27,0007.62,0001.42
2024-04-30 16:23:00,SystemResetWarning,0824.0,5.00,000.00,023.3,022.5,000.0,031.7,025.0,019.3,0000.0,0003.27,0007.71,0001.42
2024-04-30 16:24:00,SystemResetWarning,0824.0,4.99,000.00,023.3,022.5,000.0,031.7,025.0,019.7,0000.0,0003.28,0007.81,0001.42
2024-04-30 16:25:00,SystemResetWarning,0823.9,5.00,000.00,023.3,022.5,000.0,031.7,025.0,019.2,0000.0,0003.27,0007.71,0001.41
2024-04-30 16:26:00,SystemResetWarning,0823.9,5.01,000.00,023.3,022.5,000.0,031.7,025.0,019.0,0000.0,0003.25,0007.50,0001.39
2024-04-30 16:27:00,SystemResetWarning,0823.8,5.01,000.00,023.3,022.5,000.0,031.7,025.0,018.9,0000.0,0003.17,0007.29,0001.37
2024-04-30 16:28:00,SystemResetWarning,0823.9,5.00,000.00,023.3,022.5,000.0,031.7,025.0,019.0,0000.0,0003.07,0007.20,0001.35
2024-04-30 16:29:00,SystemResetWarning,0823.9,5.00,000.00,023.3,022.5,000.0,031.7,025.0,019.1,0000.0,0003.07,0007.52,0001.35
2024-04-30 16:30:00,SystemResetWarning,0824.0,5.00,000.00,023.3,022.6,000.0,031.7,025.0,018.4,0000.0,0003.07,0007.58,0001.33
2024-04-30 16:31:00,SystemResetWarning,0824.0,5.00,000.00,023.3,022.6,000.0,031.7,025.0,018.6,0000.0,0002.91,0008.25,0001.28
2024-04-30 16:32:00,SystemResetWarning,0824.0,5.00,000.00,023.4,022.6,000.0,031.7,025.0,019.0,0000.0,0002.79,0008.07,0001.26
2024-04-30 16:33:00,SystemResetWarning,0823.9,4.99,000.00,023.4,022.6,000.0,031.7,025.1,018.8,0000.0,0002.71,0007.89,0001.24
2024-04-30 16:34:00,SystemResetWarning,0823.9,5.01,000.00,023.4,022.6,000.0,031.7,025.1,018.1,0000.0,0002.67,0007.73,0001.23
2024-04-30 16:35:00,SystemResetWarning,0823.9,5.02,000.00,023.4,022.6,000.0,031.7,025.0,018.2,0000.0,0002.64,0007.60,0001.21
2024-04-30 16:36:00,SystemResetWarning,0823.9,5.00,000.00,023.4,022.6,000.0,031.7,025.0,018.6,0000.0,0002.57,0007.59,0001.21
2024-04-30 16:37:00,SystemResetWarning,0824.0,4.99,000.00,023.4,022.6,000.0,031.7,025.1,018.7,0000.0,0002.56,0008.21,0001.21
2024-04-30 16:38:00,SystemResetWarning,0824.0,4.99,000.00,023.4,022.6,000.0,031.7,025.1,019.0,0000.0,0002.52,0008.15,0001.21
2024-04-30 16:39:00,SystemResetWarning,0824.0,4.99,000.00,023.4,022.6,000.0,031.7,025.1,018.7,0000.0,0002.54,0008.09,0001.21
2024-04-30 16:40:00,SystemResetWarning,0824.0,5.01,000.00,023.4,022.6,000.0,031.7,025.1,018.5,0000.0,0002.45,0007.73,0001.20
2024-04-30 16:41:00,SystemResetWarning,0824.0,5.01,000.00,023.4,022.6,000.0,031.7,025.1,018.5,0000.0,0002.35,0007.59,0001.20
2024-04-30 16:42:00,SystemResetWarning,0824.0,5.00,000.00,023.4,022.6,000.0,031.7,025.1,018.9,0000.0,0002.36,0006.27,0001.21
2024-04-30 16:43:00,SystemResetWarning,0824.0,4.98,000.00,023.4,022.7,000.0,031.8,025.1,019.1,0000.0,0002.37,0006.28,0001.20
2024-04-30 16:44:00,SystemResetWarning,0823.9,5.00,000.00,023.4,022.7,000.0,031.8,025.1,018.6,0000.0,0002.49,0006.57,0001.20
2024-04-30 16:45:00,SystemResetWarning,0824.0,5.01,000.00,023.4,022.7,000.0,031.8,025.1,018.1,0000.0,0002.55,0006.80,0001.20
2024-04-30 16:46:00,SystemResetWarning,0824.0,5.01,000.00,023.4,022.7,000.0,031.8,025.2,017.9,0000.0,0002.54,0006.77,0001.21
2024-04-30 16:47:00,SystemResetWarning,0824.0,5.00,000.00,023.4,022.7,000.0,031.8,025.2,018.6,0000.0,0002.65,0006.94,0001.21
2024-04-30 16:48:00,SystemResetWarning,0824.0,4.99,000.00,023.5,022.7,000.0,031.8,025.2,018.7,0000.0,0002.70,0006.63,0001.23
2024-04-30 16:49:00,SystemResetWarning,0824.0,4.99,000.00,023.5,022.7,000.0,031.8,025.2,017.7,0000.0,0002.72,0006.65,0001.23
2024-04-30 16:50:00,SystemResetWarning,0824.0,5.01,000.00,023.5,022.7,000.0,031.8,025.2,017.9,0000.0,0002.71,0006.58,0001.23
2024-04-30 16:51:00,SystemResetWarning,0824.0,5.01,000.00,023.5,022.7,000.0,031.8,025.2,018.1,0000.0,0002.75,0006.66,0001.22
2024-04-30 16:52:00,SystemResetWarning,0823.9,4.99,000.00,023.5,022.8,000.0,031.8,025.2,018.3,0000.0,0002.78,0006.67,0001.23
2024-04-30 16:53:00,SystemResetWarning,0823.9,4.99,000.00,023.5,022.8,000.0,031.8,025.2,017.7,0000.0,0002.83,0006.89,0001.23
2024-04-30 16:54:00,SystemResetWarning,0823.9,5.00,000.00,023.5,022.8,000.0,031.8,025.2,017.8,0000.0,0002.84,0006.96,0001.23
2024-04-30 16:55:00,SystemResetWarning,0823.9,4.99,000.00,023.5,022.8,000.0,031.9,025.3,017.2,0000.0,0002.76,0006.77,0001.25
2024-04-30 16:56:00,SystemResetWarning,0824.0,5.00,000.00,023.5,022.8,000.0,031.9,025.2,017.8,0000.0,0002.76,0006.85,0001.25
2024-04-30 16:57:00,SystemResetWarning,0823.8,5.00,000.00,023.5,022.8,000.0,031.9,025.3,017.9,0000.0,0002.93,0007.21,0001.27
2024-04-30 16:58:00,SystemResetWarning,0823.8,5.01,000.00,023.6,022.9,000.0,031.9,025.3,018.5,0000.0,0002.98,0007.67,0001.29
2024-04-30 16:59:00,SystemResetWarning,0824.0,5.00,000.00,023.6,022.9,000.0,031.9,025.3,017.5,0000.0,0003.00,0007.22,0001.30
